Tracking 18987 objects as of 26-Feb-2018
HD Live streaming from Space Station
objects crossing your sky now

ORBCOMM FM 27

Track ORBCOMM FM 27 now!
10-day predictions
ORBCOMM FM 27 is classified as:


NORAD ID: 25481
Int'l Code: 1998-053G
Perigee: 789.0 km
Apogee: 791.2 km
Inclination: 45.0 °
Period: 100.5 minutes
Semi major axis: 7161 km
RCS: 0.6177 m2 (medium)
Launch date: September 23, 1998
Source: ORBCOMM (ORB)
Launch site: Pegasus launched from Eastern Range Air Space (ERAS)
aabbcc
Your satellite tracking list
Your tracking list is empty




NASA's NSSDC Master Catalog

Two Line Element Set (TLE):
1 25481U 98053G   18056.58277170 +.00000011 +00000-0 +55413-4 0  9996
2 25481 045.0062 234.6740 0001530 070.2369 289.8642 14.32631172014702
Source of the keplerian elements: AFSPC